This is the latest recevied weather packets stored in our database for station/object DG4DAZ-6. If no packets are shown the sender has not sent any weather packets the latest 10 day(s).
| Time | Temp. | Humidity | Pressure | Rain* | Wind** | Luminosity | Snow |
|---|---|---|---|---|---|---|---|
| 1777295366 | 17.78° C | 39% | 1021.5 hPa | 0 mm | - | 626 W/m² | - |
| 1777294767 | 17.78° C | 40% | 1021.6 hPa | 0 mm | - | 673 W/m² | - |
| 1777294166 | 17.22° C | 37% | 1021.6 hPa | 0 mm | - | 350 W/m² | - |
| 1777293566 | 17.22° C | 36% | 1021.6 hPa | 0 mm | - | 581 W/m² | - |
| 1777292967 | 16.67° C | 34% | 1021.7 hPa | 0 mm | - | 566 W/m² | - |
| 1777292366 | 16.67° C | 34% | 1021.8 hPa | 0 mm | - | 597 W/m² | - |
| 1777291765 | 16.67° C | 34% | 1022 hPa | 0 mm | - | 782 W/m² | - |
| 1777291167 | 16.67° C | 35% | 1022 hPa | 0 mm | - | 639 W/m² | - |
| 1777290566 | 16.67° C | 39% | 1022.2 hPa | 0 mm | - | 477 W/m² | - |
| 1777289966 | 16.11° C | 40% | 1022.2 hPa | 0 mm | - | 614 W/m² | - |
| 1777289367 | 16.11° C | 37% | 1022.2 hPa | 0 mm | - | 605 W/m² | - |
| 1777288767 | 16.11° C | 40% | 1022.3 hPa | 0 mm | - | 546 W/m² | - |
| 1777288166 | 16.11° C | 44% | 1022.2 hPa | 0 mm | - | 597 W/m² | - |
| 1777287565 | 16.11° C | 43% | 1022.4 hPa | 0 mm | - | 388 W/m² | - |
| 1777286966 | 16.11° C | 40% | 1022.5 hPa | 0 mm | - | 568 W/m² | - |
| 1777286365 | 15.56° C | 41% | 1022.6 hPa | 0 mm | - | 572 W/m² | - |
| 1777285767 | 15.56° C | 44% | 1022.6 hPa | 0 mm | - | 680 W/m² | - |
| 1777285166 | 15° C | 46% | 1022.7 hPa | 0 mm | - | 648 W/m² | - |
| 1777284566 | 14.44° C | 44% | 1022.8 hPa | 0 mm | - | 540 W/m² | - |
| 1777283965 | 14.44° C | 41% | 1022.9 hPa | 0 mm | - | 576 W/m² | - |
| 1777283365 | 14.44° C | 45% | 1022.8 hPa | 0 mm | - | 563 W/m² | - |
| 1777282766 | 14.44° C | 45% | 1022.9 hPa | 0 mm | - | 496 W/m² | - |
| 1777282167 | 14.44° C | 44% | 1023 hPa | 0 mm | - | 518 W/m² | - |
| 1777281566 | 13.89° C | 46% | 1023 hPa | 0 mm | - | 508 W/m² | - |
| 1777280965 | 13.33° C | 48% | 1023.2 hPa | 0 mm | - | 605 W/m² | - |
* Rain latest hour (hover to see other rain measurements)
** Current wind speed in m/s (hover to see current wind gust speed)